Вернуться в каталог

COSMOS 2402

GLONASS

АктивенНавигацияMEO
NORAD 28113·PAYLOAD·🇷🇺 Russia

Запущен Dec 10, 2003 с Baikonur Cosmodrome

Loading…

Ближайшие Пролёты (ближайшие 24 часа)

TLE

СвежийSource: Space-Track

Эпоха: Sep 14, 2026, 10:00 UTC

1 28113U 03056B   26257.41695779 -.00000026  00000-0  00000-0 0  9998
2 28113  64.3338  59.0606 0051983  73.0866 286.3321  2.13104972177140

Отслеживайте COSMOS 2402 в реальном времени с AllMySat

Download on the App Store